Accueil
METAR-TAF:

METAR-TAF

Aéroports :

Lifuka, Tonga

latitude: 19-46-36S, longitude: 174-20-28W, altitude: 9 m

Observation

Le bulletin a été fait il y a 7 minutes, à 21:00 UTC
Vent 14 kt de est/sud-est
Température 25°C
Humidité 83%
Pression 1014 hPa
Visibilité 10 km ou plus
Quelques nuages à une hauteur de 1000 ft
Nuages épars à une hauteur de 1700 ft
Nuages fragmentés à une hauteur de 12000 ft

METAR: NFTL 232100Z 12014KT 9999 FEW010 SCT017 BKN120 25/22 Q1014

Heure: 10:07 (21:07 UTC)


TAF: absent

Observations et prévisions météorologiques de plus de 4000 aéroports (messages METAR et TAF).

Les stations disponibles sont représentées par des disques jaunes et rouges sur la carte.

Passer la souris dessus pour voir le nom de la station.

Cliquer dessus pour voir les observations et prévisions météorologiques.

Pour changer de carte: cliquez sur les boutons verts avec une croix noire pour zoomer, sur le bouton vert avec un tiret pour effectuer un zoom arrière, ou sur les flèches vertes pour les cartes adjacentes.


METAR-TAF: